Location: Canazei
(46.4667°N, 11.7667°E)
Time: 04:53:46
(UTC+00:00)

USA 306 - Pass Details

Date: 21 April 2021
Orbit: 565 x 575 km, 54.0° (Epoch: 07 May)

Event Time Altitude Azimuth Distance (km) Brightness Sun altitude
Rises 02:53:58 0° 300° (WNW) 2,783 6.2 -13.4°
Reaches altitude 10° 02:56:20 10° 307° (NW) 1,885 5.4 -13.0°
Maximum altitude 03:00:25 42° 19° (NNE) 834 4.2 -12.5°
Drops below altitude 10° 03:04:30 10° 91° (E) 1,884 6.5 -11.9°
Sets 03:06:51 0° 98° (E) 2,781 7.3 -11.5°
